Regional Weather Roundup
Issued by NWS Kansas City/Pleasant Hill, MO

Home | Current Version | Previous Version | Graphics & Text | Print | Product List | Glossary Off
Versions: 1 2 3 4 5 6 7 8 9 10 11 12 13 14 15 16 17 18 19 20 21 22 23 24 25 26 27 28 29 30 31 32 33 34 35 36 37 38 39 40 41 42 43 44 45 46 47 48 49 50

573
ASUS43 KEAX 021110
RWREAX

WEATHER ROUNDUP FOR EASTERN KANSAS AND NORTHWEST MISSOURI
NATIONAL WEATHER SERVICE KANSAS CITY/PLEASANT HILL MO
600 AM CDT MON MAY 02 2016

KSZ040-057-103>105-MOZ028-029-037-043-021200-
...KANSAS CITY METROPOLITAN AREA...

CITY           SKY/WX    TMP DP  RH WIND       PRES   REMARKS
K.C. INTL      CLOUDY    48  44  86 NW6       30.09F
K.C. DOWNTOWN  CLOUDY    50  44  80 NW5       30.10S
LEES SUMMIT    CLOUDY    48  44  86 N8        30.08F
OLATHE - IXD   CLOUDY    47  45  93 NW9       30.10S
OLATHE - OJC   CLOUDY    47  44  90 NW7       30.09F
LAWRENCE       CLOUDY    48  44  86 N9        30.11F

$$

MOZ001>008-011>017-020>025-030>033-038>040-044>046-053-054-021200-
...NORTHERN AND CENTRAL MISSOURI...

CITY           SKY/WX    TMP DP  RH WIND       PRES   REMARKS
ST. JOSEPH     CLOUDY    48  45  89 N7        30.11F
MOSBY          CLOUDY    48  45  87 N3        30.10S
WARRENSBURG    CLOUDY    46  45  93 NW5       30.08F
WHITEMAN AFB   NOT AVBL
CLINTON        CLOUDY    48  46  93 NW6       30.08S
SEDALIA        CLOUDY    50  46  86 N10       30.08S
WARSAW         NOT AVBL
CHILLICOTHE      N/A     47  45  93 CALM      30.10S
KIRKSVILLE     CLOUDY    48  46  93 NW6       30.08S

$$

MOZ041-047>049-056>058-063>065-088>090-097-021200-
...EASTERN AND SOUTHERN MISSOURI...

CITY           SKY/WX    TMP DP  RH WIND       PRES   REMARKS
ST. LOUIS INTL LGT RAIN  53  47  79 NW6       30.03R
SPIRIT OF STL  CLOUDY    52  48  87 N5        30.02F
COLUMBIA       CLOUDY    50  45  83 N10       30.04F
JEFFERSON CITY CLOUDY    50  44  80 CALM      30.06S
ROLLA          CLOUDY    47  44  90 N5        30.03S
OSAGE BEACH    CLOUDY    48  37  66 CALM      30.06R
SPRINGFIELD    CLOUDY    51  46  83 N7        30.06S
JOPLIN         CLOUDY    50  46  86 N7        30.09F
WEST PLAINS    CLOUDY    50  43  77 N5        30.04F

$$

IAZ060-094-KSZ022-034>040-054-083-096-NEZ052-066-093-021200-
...KANSAS...SOUTHEAST NEBRASKA AND IOWA...

CITY           SKY/WX    TMP DP  RH WIND       PRES   REMARKS
TOPEKA         CLOUDY    48  43  82 NW7       30.12S
MANHATTAN      CLOUDY    49  43  80 VRB3      30.14S
EMPORIA        CLOUDY    47  43  86 NW8       30.12S
CHANUTE        CLOUDY    49  43  80 N7        30.11S
WICHITA        CLOUDY    48  43  82 NW10      30.15S
OMAHA          CLOUDY    44  41  89 N6        30.13S
LINCOLN        CLOUDY    48  41  76 NW7       30.15F
FALLS CITY     CLOUDY    47  44  90 NW6       30.11F
LAMONI         CLOUDY    46  44  93 N7        30.09S
DES MOINES     PTCLDY    42  40  92 CALM      30.11S FOG

$$





USA.gov is the U.S. government's official web portal to all federal, state and local government web resources and services.